• In Hungary
  • List of Countries
  • For 7 days
  • Water Temperature
  • Satellite Maps
  • Weather Map
  • News
  • Weather Widgets
  • user-avatar
    Login

    Hourly Weather Unikowo

    Today, 23 July, Monday

    Time Temperature Precipitation Wind Pressure Humidity
    00:00 +18°C° 0 mm 3 mps 747 mmHg 91%
    01:00 +18°C° 0 mm 3 mps 747 mmHg 92%
    02:00 +17°C° 0 mm 3 mps 747 mmHg 92%
    03:00 +17°C° 0 mm 3 mps 747 mmHg 92%
    04:00 +16°C° 0 mm 2 mps 747 mmHg 92%
    05:00 +17°C° 0 mm 3 mps 747 mmHg 86%
    06:00 +19°C° 0 mm 3 mps 748 mmHg 80%
    07:00 +20°C° 0 mm 3 mps 748 mmHg 75%
    08:00 +22°C° 0 mm 3 mps 748 mmHg 69%
    09:00 +25°C° 0 mm 4 mps 748 mmHg 63%
    10:00 +26°C° 0 mm 4 mps 748 mmHg 57%
    11:00 +27°C° 0 mm 4 mps 748 mmHg 55%
    12:00 +27°C° 0 mm 4 mps 748 mmHg 53%
    13:00 +28°C° 0 mm 5 mps 748 mmHg 51%
    14:00 +28°C° 0 mm 5 mps 748 mmHg 52%
    15:00 +28°C° 0 mm 5 mps 748 mmHg 53%
    16:00 +28°C° 0 mm 5 mps 747 mmHg 54%
    17:00 +26°C° 0 mm 5 mps 748 mmHg 60%
    18:00 +25°C° 0 mm 4 mps 748 mmHg 66%
    19:00 +22°C° 0 mm 3 mps 748 mmHg 72%
    20:00 +21°C° 0 mm 3 mps 748 mmHg 75%
    21:00 +20°C° 0 mm 3 mps 748 mmHg 78%
    22:00 +18°C° 0 mm 3 mps 748 mmHg 82%
    23:00 +18°C° 0 mm 3 mps 748 mmHg 82%

    Tomorrow, 24 July, Tuesday

    Time Temperature Precipitation Wind Pressure Humidity
    00:00 +17°C° 0 mm 3 mps 748 mmHg 83%
    01:00 +17°C° 0 mm 3 mps 748 mmHg 84%
    02:00 +16°C° 0 mm 3 mps 748 mmHg 84%
    03:00 +16°C° 0 mm 3 mps 748 mmHg 84%
    04:00 +16°C° 0 mm 3 mps 748 mmHg 84%
    05:00 +17°C° 0 mm 3 mps 748 mmHg 80%
    06:00 +19°C° 0 mm 4 mps 749 mmHg 76%
    07:00 +21°C° 0 mm 4 mps 749 mmHg 72%
    08:00 +22°C° 0 mm 4 mps 749 mmHg 67%
    09:00 +25°C° 0 mm 4 mps 749 mmHg 61%
    10:00 +26°C° 0 mm 4 mps 749 mmHg 56%
    11:00 +27°C° 0 mm 4 mps 749 mmHg 53%
    12:00 +28°C° 0 mm 3 mps 748 mmHg 51%
    13:00 +28°C° 0 mm 3 mps 748 mmHg 48%
    14:00 +28°C° 0 mm 4 mps 748 mmHg 49%
    15:00 +28°C° 0 mm 4 mps 748 mmHg 51%
    16:00 +28°C° 0 mm 4 mps 748 mmHg 52%
    17:00 +27°C° 0 mm 4 mps 748 mmHg 59%
    18:00 +25°C° 0 mm 3 mps 748 mmHg 66%
    19:00 +24°C° 0 mm 3 mps 748 mmHg 73%
    20:00 +21°C° 0 mm 3 mps 748 mmHg 78%
    21:00 +20°C° 0 mm 3 mps 748 mmHg 84%
    22:00 +19°C° 0 mm 3 mps 748 mmHg 89%
    23:00 +18°C° 0 mm 3 mps 748 mmHg 90%

    Day after tomorrow, 25 July, Wednesday

    Time Temperature Precipitation Wind Pressure Humidity
    00:00 +17°C° 0 mm 3 mps 748 mmHg 91%
    01:00 +17°C° 0 mm 2 mps 748 mmHg 93%
    02:00 +16°C° 0 mm 2 mps 748 mmHg 93%
    03:00 +16°C° 0 mm 2 mps 748 mmHg 93%
    04:00 +16°C° 0 mm 2 mps 748 mmHg 93%
    05:00 +17°C° 0 mm 3 mps 748 mmHg 88%
    06:00 +19°C° 0 mm 3 mps 748 mmHg 82%
    07:00 +21°C° 0 mm 3 mps 748 mmHg 77%
    08:00 +22°C° 0 mm 3 mps 748 mmHg 70%
    09:00 +25°C° 0 mm 3 mps 748 mmHg 64%
    10:00 +27°C° 0 mm 4 mps 748 mmHg 57%
    11:00 +28°C° 0 mm 4 mps 748 mmHg 55%
    12:00 +28°C° 0 mm 4 mps 748 mmHg 53%
    13:00 +29°C° 0 mm 4 mps 748 mmHg 51%
    14:00 +29°C° 0.1 mm 4 mps 747 mmHg 53%
    15:00 +28°C° 0.1 mm 5 mps 747 mmHg 56%
    16:00 +28°C° 0.1 mm 5 mps 747 mmHg 59%
    17:00 +27°C° 0.2 mm 4 mps 747 mmHg 66%
    18:00 +25°C° 0.2 mm 4 mps 747 mmHg 73%
    19:00 +23°C° 0.2 mm 4 mps 747 mmHg 81%
    20:00 +22°C° 0.3 mm 3 mps 748 mmHg 85%
    21:00 +21°C° 0.3 mm 3 mps 748 mmHg 89%
    22:00 +20°C° 0.3 mm 3 mps 748 mmHg 93%
    23:00 +20°C° 0 mm 3 mps 748 mmHg 94%

    26 July, Thursday

    Time Temperature Precipitation Wind Pressure Humidity
    00:00 +19°C° 0 mm 3 mps 748 mmHg 95%
    01:00 +19°C° 0 mm 3 mps 748 mmHg 96%
    02:00 +19°C° 0 mm 3 mps 748 mmHg 97%
    03:00 +19°C° 0 mm 3 mps 748 mmHg 97%
    04:00 +18°C° 0 mm 3 mps 748 mmHg 97%
    05:00 +20°C° 0 mm 3 mps 748 mmHg 94%
    06:00 +21°C° 0 mm 3 mps 748 mmHg 91%
    07:00 +22°C° 0 mm 4 mps 748 mmHg 88%
    08:00 +23°C° 0.1 mm 4 mps 748 mmHg 82%
    09:00 +26°C° 0.1 mm 4 mps 748 mmHg 76%
    10:00 +27°C° 0.1 mm 3 mps 748 mmHg 71%
    11:00 +28°C° 0.4 mm 4 mps 748 mmHg 67%
    12:00 +29°C° 0.4 mm 4 mps 748 mmHg 63%
    13:00 +30°C° 0.4 mm 4 mps 748 mmHg 60%
    14:00 +30°C° 1.2 mm 4 mps 748 mmHg 62%
    15:00 +30°C° 1.2 mm 4 mps 748 mmHg 63%
    16:00 +29°C° 1.2 mm 4 mps 748 mmHg 65%
    17:00 +28°C° 0.8 mm 4 mps 748 mmHg 71%
    18:00 +27°C° 0.8 mm 3 mps 748 mmHg 77%
    19:00 +26°C° 0.8 mm 3 mps 748 mmHg 82%
    20:00 +25°C° 0.7 mm 3 mps 748 mmHg 86%
    21:00 +24°C° 0.7 mm 3 mps 748 mmHg 89%
    22:00 +22°C° 0.7 mm 3 mps 748 mmHg 92%
    23:00 +23°C° 0.1 mm 2 mps 748 mmHg 92%

    27 July, Friday

    Time Temperature Precipitation Wind Pressure Humidity
    00:00 +21°C° 0.1 mm 2 mps 748 mmHg 93%
    01:00 +21°C° 0.1 mm 2 mps 748 mmHg 93%
    02:00 +21°C° 0 mm 2 mps 748 mmHg 93%
    03:00 +20°C° 0 mm 2 mps 748 mmHg 93%
    04:00 +20°C° 0 mm 2 mps 748 mmHg 93%
    05:00 +21°C° 0 mm 2 mps 748 mmHg 88%
    06:00 +24°C° 0 mm 2 mps 748 mmHg 84%
    07:00 +25°C° 0 mm 2 mps 748 mmHg 80%
    08:00 +26°C° 0 mm 3 mps 748 mmHg 73%
    09:00 +28°C° 0 mm 3 mps 748 mmHg 66%
    10:00 +29°C° 0 mm 3 mps 748 mmHg 60%
    11:00 +30°C° 0.1 mm 3 mps 748 mmHg 58%
    12:00 +30°C° 0.1 mm 3 mps 748 mmHg 56%
    13:00 +31°C° 0.1 mm 2 mps 748 mmHg 54%
    14:00 +31°C° 0.4 mm 2 mps 747 mmHg 55%
    15:00 +31°C° 0.4 mm 2 mps 747 mmHg 56%
    16:00 +31°C° 0.4 mm 2 mps 747 mmHg 57%
    17:00 +29°C° 0.4 mm 2 mps 747 mmHg 63%
    18:00 +28°C° 0.4 mm 2 mps 747 mmHg 69%
    19:00 +27°C° 0.4 mm 2 mps 747 mmHg 74%
    20:00 +26°C° 0 mm 2 mps 747 mmHg 78%
    21:00 +25°C° 0 mm 2 mps 747 mmHg 81%
    22:00 +24°C° 0 mm 2 mps 747 mmHg 84%
    23:00 +23°C° 0 mm 2 mps 747 mmHg 85%

    28 July, Saturday

    Time Temperature Precipitation Wind Pressure Humidity
    00:00 +23°C° 0 mm 2 mps 747 mmHg 87%
    01:00 +23°C° 0 mm 2 mps 747 mmHg 88%
    02:00 +21°C° 0 mm 2 mps 747 mmHg 89%
    03:00 +21°C° 0 mm 2 mps 747 mmHg 90%
    04:00 +21°C° 0 mm 2 mps 747 mmHg 91%
    05:00 +23°C° 0 mm 2 mps 747 mmHg 87%
    06:00 +25°C° 0 mm 2 mps 748 mmHg 82%
    07:00 +26°C° 0 mm 2 mps 748 mmHg 77%
    08:00 +28°C° 0.1 mm 2 mps 748 mmHg 71%
    09:00 +29°C° 0.1 mm 2 mps 748 mmHg 66%
    10:00 +31°C° 0.1 mm 2 mps 748 mmHg 60%
    11:00 +31°C° 0.1 mm 2 mps 748 mmHg 57%
    12:00 +32°C° 0.1 mm 2 mps 748 mmHg 55%
    13:00 +32°C° 0.1 mm 2 mps 748 mmHg 52%
    14:00 +32°C° 0.4 mm 2 mps 748 mmHg 53%
    15:00 +32°C° 0.4 mm 2 mps 748 mmHg 54%
    16:00 +32°C° 0.4 mm 2 mps 748 mmHg 55%
    17:00 +31°C° 0.5 mm 2 mps 748 mmHg 61%
    18:00 +29°C° 0.5 mm 2 mps 748 mmHg 66%
    19:00 +28°C° 0.5 mm 2 mps 748 mmHg 72%
    20:00 +27°C° 0.1 mm 2 mps 748 mmHg 76%
    21:00 +26°C° 0.1 mm 2 mps 749 mmHg 79%
    22:00 +25°C° 0.1 mm 2 mps 749 mmHg 83%
    23:00 +24°C° 0 mm 2 mps 749 mmHg 85%
    Show more